OK1VCF-8 Weather Reports


time (UTC)temp
C
wind
direction
speed
KPH
gust
KPH
rain 1hr
cm
rain 24hr
cm
rain mn
cm
humidity
%
barometer
mb
20260506102337 21 0 0.0 0.0 0.00 0.00 0.00 52 1007.8
20260506101617 21 0 0.0 0.0 0.00 0.00 0.00 50 1008.0
20260506100857 22 0 0.0 0.0 0.00 0.00 0.00 55 1008.0
20260506100138 22 0 0.0 0.0 0.00 0.00 0.00 50 1008.0
20260506095415 22 0 0.0 0.0 0.00 0.00 0.00 54 1008.0
20260506094655 21 0 0.0 0.0 0.00 0.00 0.00 57 1008.0
20260506093935 20 0 0.0 0.0 0.00 0.00 0.00 58 1007.9
20260506093216 20 0 0.0 0.0 0.00 0.00 0.00 59 1008.0
20260506092457 18 0 0.0 0.0 0.00 0.00 0.00 60 1008.0
20260506091736 18 0 0.0 0.0 0.00 0.00 0.00 60 1008.1
20260506091016 20 0 0.0 0.0 0.00 0.00 0.00 56 1008.0
20260506084835 18 0 0.0 0.0 0.00 0.00 0.00 62 1008.0
20260506084117 19 0 0.0 0.0 0.00 0.00 0.00 60 1007.8
20260506083112 20 0 0.0 0.0 0.00 0.00 0.00 60 1008.0
20260506082351 20 0 0.0 0.0 0.00 0.00 0.00 64 1008.0
20260506081630 18 0 0.0 0.0 0.00 0.00 0.00 65 1007.9
20260506080911 18 0 0.0 0.0 0.00 0.00 0.00 66 1008.0
20260506080152 18 0 0.0 0.0 0.00 0.00 0.00 69 1008.0
20260506073229 17 0 0.0 0.0 0.00 0.00 0.00 72 1007.9
20260506072508 17 0 0.0 0.0 0.00 0.00 0.00 72 1008.0
20260506071747 18 0 0.0 0.0 0.00 0.00 0.00 70 1008.0
20260506071017 17 0 0.0 0.0 0.00 0.00 0.00 72 1008.0
20260506070241 17 0 0.0 0.0 0.00 0.00 0.00 71 1007.8
20260506062140 16 0 0.0 0.0 0.00 0.00 0.00 78 1007.8
20260506061403 15 0 0.0 0.0 0.00 0.00 0.00 79 1007.8
20260506060626 15 0 0.0 0.0 0.00 0.00 0.00 82 1007.7
20260506050716 13 0 0.0 0.0 0.00 0.00 0.00 92 1008.0
20260506044237 13 0 0.0 0.0 0.00 0.00 0.00 88 1007.7
20260506043514 14 0 0.0 0.0 0.00 0.00 0.00 90 1007.6
20260506042757 12 0 0.0 0.0 0.00 0.00 0.00 92 1007.6
20260506042038 12 0 0.0 0.0 0.00 0.00 0.00 90 1007.5
20260506035858 12 0 0.0 0.0 0.00 0.00 0.00 96 1007.4
20260506035142 12 0 0.0 0.0 0.00 0.00 0.00 96 1007.0
20260506034415 11 0 0.0 0.0 0.00 0.00 0.00 96 1007.1
20260506033642 11 0 0.0 0.0 0.00 0.00 0.00 96 1007.2
20260506031441 11 0 0.0 0.0 0.00 0.00 0.00 96 1007.0
20260506030724 11 0 0.0 0.0 0.00 0.00 0.00 96 1007.2
20260506030005 11 0 0.0 0.0 0.00 0.00 0.00 96 1007.2
20260506025004 11 0 0.0 0.0 0.00 0.00 0.00 96 1007.2
20260506024245 11 0 0.0 0.0 0.00 0.00 0.00 96 1007.1
20260506023526 11 0 0.0 0.0 0.00 0.00 0.00 96 1007.2
20260506022809 11 0 0.0 0.0 0.00 0.00 0.00 96 1007.2
20260506022051 11 0 0.0 0.0 0.00 0.00 0.00 96 1007.4
20260506021332 11 0 0.0 0.0 0.00 0.00 0.00 96 1007.4
20260506020615 11 0 0.0 0.0 0.00 0.00 0.00 96 1007.3
20260506015857 12 0 0.0 0.0 0.00 0.00 0.00 96 1007.2
20260506015140 12 0 0.0 0.0 0.00 0.00 0.00 96 1007.2
20260506014423 12 0 0.0 0.0 0.00 0.00 0.00 96 1007.1
20260506013704 12 0 0.0 0.0 0.00 0.00 0.00 96 1007.0
20260506011506 12 0 0.0 0.0 0.00 0.00 0.00 95 1006.8
20260506010730 12 0 0.0 0.0 0.00 0.00 0.00 95 1006.8
20260506005631 12 0 0.0 0.0 0.00 0.00 0.00 95 1007.0
20260506004813 12 0 0.0 0.0 0.00 0.00 0.00 95 1006.9
20260506003945 12 0 0.0 0.0 0.00 0.00 0.00 95 1007.0
20260506003121 12 0 0.0 0.0 0.00 0.00 0.00 95 1007.0
20260506002305 12 0 0.0 0.0 0.00 0.00 0.00 94 1007.1
20260506001441 12 0 0.0 0.0 0.00 0.00 0.00 94 1007.0
20260506000625 12 0 0.0 0.0 0.00 0.00 0.00 94 1006.8
20260505235812 12 0 0.0 0.0 0.00 0.00 0.00 94 1007.0
20260505235004 13 0 0.0 0.0 0.00 0.00 0.00 94 1006.9
20260505234218 13 0 0.0 0.0 0.00 0.00 0.00 94 1006.9
20260505233436 13 0 0.0 0.0 0.00 0.00 0.00 94 1007.2
20260505232658 12 0 0.0 0.0 0.00 0.00 0.00 94 1007.1
20260505231931 13 0 0.0 0.0 0.00 0.00 0.00 94 1007.2
20260505231213 13 0 0.0 0.0 0.00 0.00 0.00 94 1007.3
20260505230454 13 0 0.0 0.0 0.00 0.00 0.00 94 1007.6
20260505225453 12 0 0.0 0.0 0.00 0.00 0.00 94 1007.2
20260505224736 12 0 0.0 0.0 0.00 0.00 0.00 94 1007.4
20260505224018 13 0 0.0 0.0 0.00 0.00 0.00 94 1007.3
20260505223300 13 0 0.0 0.0 0.00 0.00 0.00 94 1007.4
20260505222543 13 0 0.0 0.0 0.00 0.00 0.00 94 1007.4
20260505221827 13 0 0.0 0.0 0.00 0.00 0.00 94 1007.2
20260505221108 13 0 0.0 0.0 0.00 0.00 0.00 93 1007.4
20260505220350 13 0 0.0 0.0 0.00 0.00 0.00 93 1007.4
20260505215632 13 0 0.0 0.0 0.00 0.00 0.00 92 1007.4
20260505214913 13 0 0.0 0.0 0.00 0.00 0.00 92 1007.5
20260505214156 13 0 0.0 0.0 0.00 0.00 0.00 92 1007.4
20260505213438 13 0 0.0 0.0 0.00 0.00 0.00 92 1007.6
20260505212720 14 0 0.0 0.0 0.00 0.00 0.00 92 1007.6
20260505212002 14 0 0.0 0.0 0.00 0.00 0.00 92 1007.5
20260505211245 14 0 0.0 0.0 0.00 0.00 0.00 92 1007.4
20260505210243 13 0 0.0 0.0 0.00 0.00 0.00 90 1007.2
20260505204106 14 0 0.0 0.0 0.00 0.00 0.00 86 1006.4
20260505203348 15 0 0.0 0.0 0.00 0.00 0.00 78 1006.3
20260505202630 15 0 0.0 0.0 0.00 0.00 0.00 77 1005.8
20260505200447 17 0 0.0 0.0 0.00 0.00 0.00 66 1005.6
20260505195727 17 0 0.0 0.0 0.00 0.00 0.00 67 1005.4
20260505195009 17 0 0.0 0.0 0.00 0.00 0.00 66 1005.0
20260505194251 17 0 0.0 0.0 0.00 0.00 0.00 66 1004.8
20260505193534 17 0 0.0 0.0 0.00 0.00 0.00 66 1004.7
20260505192815 17 0 0.0 0.0 0.00 0.00 0.00 66 1004.6
20260505192057 17 0 0.0 0.0 0.00 0.00 0.00 65 1004.6
20260505191054 17 0 0.0 0.0 0.00 0.00 0.00 64 1004.6
20260505190333 17 0 0.0 0.0 0.00 0.00 0.00 64 1004.8
20260505184148 17 0 0.0 0.0 0.00 0.00 0.00 62 1004.8
20260505183430 17 0 0.0 0.0 0.00 0.00 0.00 62 1004.8
20260505182712 17 0 0.0 0.0 0.00 0.00 0.00 62 1004.7
20260505181953 18 0 0.0 0.0 0.00 0.00 0.00 62 1004.8
20260505181234 18 0 0.0 0.0 0.00 0.00 0.00 60 1004.6
20260505180516 18 0 0.0 0.0 0.00 0.00 0.00 57 1004.7
20260505175753 18 0 0.0 0.0 0.00 0.00 0.00 56 1004.8
20260505173613 20 0 0.0 0.0 0.00 0.00 0.00 54 1005.0
20260505172854 20 0 0.0 0.0 0.00 0.00 0.00 55 1005.2
20260505171851 20 0 0.0 0.0 0.00 0.00 0.00 56 1005.4
20260505171131 20 0 0.0 0.0 0.00 0.00 0.00 56 1005.4
20260505170411 20 0 0.0 0.0 0.00 0.00 0.00 54 1005.6
20260505165650 21 0 0.0 0.0 0.00 0.00 0.00 52 1005.6
20260505164932 21 0 0.0 0.0 0.00 0.00 0.00 52 1005.6
20260505164212 21 0 0.0 0.0 0.00 0.00 0.00 51 1005.8
20260505163453 22 0 0.0 0.0 0.00 0.00 0.00 49 1005.6
20260505162734 22 0 0.0 0.0 0.00 0.00 0.00 47 1005.6
20260505162015 24 0 0.0 0.0 0.00 0.00 0.00 42 1005.4
20260505161256 27 0 0.0 0.0 0.00 0.00 0.00 36 1005.2
20260505160537 30 0 0.0 0.0 0.00 0.00 0.00 33 1005.1
20260505152616 30 0 0.0 0.0 0.00 0.00 0.00 30 1005.5
20260505151857 33 0 0.0 0.0 0.00 0.00 0.00 26 1005.6
20260505151139 27 0 0.0 0.0 0.00 0.00 0.00 34 1005.7
20260505150420 25 0 0.0 0.0 0.00 0.00 0.00 38 1005.8
20260505140547 25 0 0.0 0.0 0.00 0.00 0.00 38 1006.2
20260505124804 25 0 0.0 0.0 0.00 0.00 0.00 40 1007.0
20260505123940 25 0 0.0 0.0 0.00 0.00 0.00 40 1006.9
20260505123115 25 0 0.0 0.0 0.00 0.00 0.00 41 1007.0
20260505122255 24 0 0.0 0.0 0.00 0.00 0.00 43 1007.1
20260505121430 24 0 0.0 0.0 0.00 0.00 0.00 43 1007.2
20260505120616 24 0 0.0 0.0 0.00 0.00 0.00 42 1007.4
20260505115755 24 0 0.0 0.0 0.00 0.00 0.00 42 1007.6
20260505114939 23 0 0.0 0.0 0.00 0.00 0.00 42 1007.6
20260505114129 24 0 0.0 0.0 0.00 0.00 0.00 42 1007.6
20260505113056 23 0 0.0 0.0 0.00 0.00 0.00 42 1007.7
20260505112322 23 0 0.0 0.0 0.00 0.00 0.00 41 1007.8
20260505111558 23 0 0.0 0.0 0.00 0.00 0.00 42 1007.8
20260505110839 23 0 0.0 0.0 0.00 0.00 0.00 43 1008.0
20260505110119 23 0 0.0 0.0 0.00 0.00 0.00 42 1008.0